Regional Weather Roundup
Issued by NWS Upton, NY

Current Version | Previous Version | Graphics & Text | Print | Product List | Glossary Off
Versions: 1 2 3 4 5 6 7 8 9 10 11 12 13 14 15 16 17 18 19 20 21 22 23 24 25 26 27 28 29 30 31 32 33 34 35 36 37 38 39 40 41 42 43 44 45 46 47 48 49 50

000
ASUS41 KOKX 261307
RWROKX

REGIONAL WEATHER ROUNDUP
NATIONAL WEATHER SERVICE NEW YORK NY
900 AM EDT THU MAR 26 2015

NOTE: "FAIR" INDICATES FEW OR NO CLOUDS BELOW 12,000 FEET WITH NO
SIGNIFICANT WEATHER AND/OR OBSTRUCTIONS TO VISIBILITY.

NYZ071-072-176-178-NJZ106-104-261400-
NEW YORK CITY METRO AREA


CITY           SKY/WX    TMP DP  RH WIND       PRES   REMARKS
CENTRAL PARK   CLOUDY    47  41  80 CALM      29.99F HAZE
LAGUARDIA APRT CLOUDY    45  41  86 S6        29.98F FOG
KENNEDY INTL   FOG       45  42  89 S3        29.99F VSB 3/4
NEWARK/LIBERTY CLOUDY    43  43 100 SE3       29.97F FOG
BRNX BOT. GARD   N/A     45  41  87 SE5       29.99R
TETERBORO      FOG       43  40  89 S7        29.97F VSB 1
$$

NYZ177-179-078>081-261400-
LONG ISLAND NEW YORK

CITY           SKY/WX    TMP DP  RH WIND       PRES   REMARKS
FARMINGDALE    FOG       45  44  97 SW5       29.98F VSB 1/4
ISLIP          FOG       45  43  93 SW6       29.97F VSB 1
SHIRLEY        CLOUDY    45  44  97 SW3       29.99F FOG
WESTHAMPTON    CLOUDY    46  44  93 SW7       29.99F FOG
MONTAUK POINT    N/A     45  45 100 S6        30.00F
$$

NYZ052-065-067-261400-
HUDSON VALLEY

CITY           SKY/WX    TMP DP  RH WIND       PRES   REMARKS
WHITE PLAINS   FOG       42  41  96 CALM      29.96S VSB 1/2
NEWBURGH       NOT AVBL
MONTGOMERY     MOSUNNY   38  38 100 W6        29.93F FOG     WCI  33
POUGHKEEPSIE   MOSUNNY   39  37  92 CALM      29.94F FOG
ALBANY         FOG       37  35  92 S7        29.94F VSB 1/4 WCI  32
$$

NJZ001-105-106-008-010-013-015-019>022-104-261400-
NEW JERSEY

CITY           SKY/WX    TMP DP  RH WIND       PRES   REMARKS
NEWARK/LIBERTY CLOUDY    43  43 100 SE3       29.97F FOG
TETERBORO      FOG       43  40  89 S7        29.97F VSB 1
CALDWELL       CLOUDY    42  39  89 CALM      29.98F FOG
MORRISTOWN     CLOUDY    43  41  93 SW3       29.97F FOG
SOMERVILLE     CLOUDY    41  39  93 CALM      29.96S FOG
SUSSEX         PTSUNNY   36  35  96 S3        29.95F FOG
ANDOVER          N/A     35  35 100 CALM      29.95F
TRENTON        FOG       42  40  92 SE3       29.95F VSB 3/4
MILLVILLE      CLOUDY    52  51  97 S3        29.97F FOG
ATLANTIC CITY  CLOUDY    54  52  93 S10       29.98F FOG
WRIGHTSTOWN    CLOUDY    46  46 100 S1        29.95F
TOMS RIVER     CLOUDY    52  50  93 S5        29.97F
BELMAR         CLOUDY    46  43  87 SE3       29.97F
$$

PAZ047>061-062-071-261400-
EASTERN PENNSYLVANIA

CITY           SKY/WX    TMP DP  RH WIND       PRES   REMARKS
PHILADELPHIA   CLOUDY    45  42  89 CALM      29.96F
ALLENTOWN      CLOUDY    37  34  89 N3        29.95F FOG
SCRANTON       CLOUDY    42  36  79 NE5       29.88F HAZE
$$

CTZ002-004>006-009-010-012-RIZ004-006-007-MAZ004-011-015-261400-
SOUTHERN NEW ENGLAND
 IN CT

CITY           SKY/WX    TMP DP  RH WIND       PRES   REMARKS
BRADLEY INTL   CLOUDY    42  40  92 S8        29.95F FOG
HARTFORD       CLOUDY    41  40  96 S9        29.97F FOG
DANBURY        FOG       39  36  89 CALM      29.98S VSB 1
WTRBRY/OXFORD  FOG       37  32  81 CALM      29.98S VSB 1/8
BRIDGEPORT     CLOUDY    39  39 100 CALM      29.99S FOG
MERIDEN        CLOUDY    40  39  97 S5        29.98F FOG
NEW HAVEN      FOG       38  38 100 CALM      29.99S VSB 1
CHESTER        FOG       43  43 100 W5        29.98S VSB<1/4
GROTON         FOG       41  41 100 CALM      29.98F VSB 1/4
WILLIMANTIC    CLOUDY    42  40  92 S7        29.98S FOG

 IN RI

CITY           SKY/WX    TMP DP  RH WIND       PRES   REMARKS
PROVIDENCE     PTSUNNY   46  44  93 S8        29.97F
BLOCK ISLAND   CLOUDY    45  41  87 SW13      29.98F VSB 1/4
WESTERLY       FOG       43  42  97 SW3       29.98F VSB 1/4

 IN MA

CITY           SKY/WX    TMP DP  RH WIND       PRES   REMARKS
BOSTON         CLOUDY    45  43  93 SW8       29.95S
WORCESTER      CLOUDY    41  40  96 W8        29.92S FOG
WESTFIELD      FOG       37  36  96 SE3       29.95S VSB<1/4
PROVINCETOWN   CLOUDY    45  41  87 S12       29.96S VSB 1/4
NANTUCKET      LGT RAIN  41  40  96 S8        30.01F VSB 1/4
$$

ANZ330-335-338-340-345-350-353-355-261400-
COASTAL MARINE OBSERVATIONS


STATION/POSITION TIME  SKY/WX   TEMP    WIND        PRES    VSBY  WAVE
                                AIR SEA DIR/SP/G                  HT/PER
                 (UTC)          (F)     (DEG/KT/KT) (MB)    (MI)  (FT/S)
NY HARB ENTRANCE 1250            40 38  140/  8/  8 1015.2          3/ 6
4S FIRE IS       1203               37                N/A           4/ 7
20S FIRE ISLAND  1150               38              1016.9          3/ 6
23SW MTP         1250                                 N/A           5/ 7
HUDSON CANYON    NOT AVBL
EXECUTION ROCKS  NOT AVBL
WESTERN LI SOUND NOT AVBL
CENTRAL LI SOUND NOT AVBL
EASTERN LI SOUND NOT AVBL
ROBBINS REEF     1200            40     170/  9/  9 1014.3
$$


>>>>>>>>>>>>>>>>>>>>>>>>>>>> KEY <<<<<<<<<<<<<<<<<<<<<<<<<<<
>                                                          <
>     SKY/WX - SKY CONDITION/PRESENT WEATHER               <
>     TMP    - TEMPERATURE IN FAHRENHEIT                   <
>     DP     - DEWPOINT IN FAHRENHEIT                      <
>     RH     - RELATIVE HUMIDITY IN PERCENT                <
>     WIND   - DIRECTION AND SPEED IN MPH                  <
>     PRES   - MEAN SEA LEVEL PRESSURE IN INCHES OF HG     <
>     WCI    - WIND CHILL INDEX                            <
>     VSB    - VISIBILITY IN MILES                         <
>     HX     - HEAT INDEX                                  <
>     TC     - TEMPERATURE IN CELSIUS                      <
>     VRB    - VARIABLE WIND DIRECTION                     <
>                                                          <
>>>>>>>>>>>>>>>>>>>>>>>>>>>> KEY <<<<<<<<<<<<<<<<<<<<<<<<<<<




USA.gov is the U.S. government's official web portal to all federal, state and local government web resources and services.